NSZ4091 ESSA-ESSV

Flight info

Callsign NSZ4091
Flight time 0h 28m
Altitude 15000
Route BABAP T316 VSB
Aircraft B38M/M-SDE1FGHILORVWXY/HB1

Departure

Time 2026-04-16 14:55
Airport Stockholm-Arlanda Airport (ESSA)

Arrival

Time 2026-04-16 15:23
Airport Visby Airport (ESSV)
Time Latitude Longitude Altitude Speed Heading
2026-04-16 14:55 59.59946 18.46344 14940 ft 361 kts 164°
2026-04-16 14:55 59.57509 18.47461 15104 ft 360 kts 164°
2026-04-16 14:55 59.55013 18.48608 15120 ft 377 kts 164°
2026-04-16 14:56 59.52409 18.49838 15142 ft 391 kts 163°
2026-04-16 14:56 59.49781 18.51098 15151 ft 397 kts 163°
2026-04-16 14:56 59.47075 18.52365 15164 ft 401 kts 164°
2026-04-16 14:56 59.44352 18.53590 15175 ft 403 kts 167°
2026-04-16 14:57 59.41542 18.53894 15183 ft 408 kts 182°
2026-04-16 14:57 59.38709 18.53456 15185 ft 409 kts 181°
2026-04-16 14:57 59.35869 18.53083 15184 ft 409 kts 181°
2026-04-16 14:57 59.33026 18.52739 15180 ft 409 kts 181°
2026-04-16 14:58 59.30183 18.52410 15181 ft 409 kts 181°
2026-04-16 14:58 59.24541 18.51769 15185 ft 409 kts 181°
2026-04-16 14:58 59.21699 18.51449 15181 ft 409 kts 181°
2026-04-16 14:59 59.18854 18.51129 15181 ft 409 kts 181°
2026-04-16 14:59 59.16011 18.50810 15183 ft 409 kts 181°
2026-04-16 14:59 59.13170 18.50492 15191 ft 409 kts 181°
2026-04-16 14:59 59.10317 18.50172 15186 ft 411 kts 181°
2026-04-16 15:00 59.07481 18.49856 15184 ft 412 kts 181°
2026-04-16 15:00 59.04653 18.49540 15185 ft 412 kts 181°
2026-04-16 15:00 59.01795 18.49222 15186 ft 412 kts 181°
2026-04-16 15:00 58.98929 18.48904 15186 ft 412 kts 181°
2026-04-16 15:01 58.96070 18.48587 15187 ft 412 kts 181°
2026-04-16 15:01 58.93207 18.48270 15185 ft 412 kts 181°
2026-04-16 15:01 58.90342 18.47953 15184 ft 412 kts 181°
2026-04-16 15:01 58.87483 18.47637 15185 ft 412 kts 181°
2026-04-16 15:02 58.84623 18.47322 15195 ft 412 kts 182°
2026-04-16 15:02 58.81756 18.47006 15188 ft 413 kts 182°
2026-04-16 15:02 58.78922 18.46695 15187 ft 413 kts 182°
2026-04-16 15:02 58.76048 18.46380 15184 ft 413 kts 182°
2026-04-16 15:03 58.73181 18.46066 15186 ft 413 kts 182°
2026-04-16 15:03 58.70306 18.45752 15187 ft 414 kts 182°
2026-04-16 15:03 58.67436 18.45439 15186 ft 414 kts 181°
2026-04-16 15:03 58.64559 18.45125 15187 ft 414 kts 181°
2026-04-16 15:04 58.61687 18.44813 15185 ft 414 kts 182°
2026-04-16 15:04 58.58855 18.44505 15186 ft 414 kts 181°
2026-04-16 15:04 58.55979 18.44193 15186 ft 414 kts 182°
2026-04-16 15:04 58.53105 18.43882 15189 ft 415 kts 182°
2026-04-16 15:05 58.50215 18.43570 15190 ft 416 kts 182°
2026-04-16 15:05 58.47331 18.43259 15188 ft 416 kts 182°
2026-04-16 15:05 58.44441 18.42948 15187 ft 416 kts 182°
2026-04-16 15:05 58.41550 18.42637 15187 ft 416 kts 182°
2026-04-16 15:06 58.38664 18.42327 15183 ft 416 kts 182°
2026-04-16 15:06 58.35777 18.42018 15188 ft 414 kts 182°
2026-04-16 15:06 58.33007 18.41720 15174 ft 394 kts 182°
2026-04-16 15:06 58.30318 18.41431 14973 ft 382 kts 182°
2026-04-16 15:07 58.27667 18.41147 14462 ft 381 kts 182°
2026-04-16 15:07 58.25028 18.40866 13945 ft 380 kts 183°
2026-04-16 15:07 58.22391 18.40586 13378 ft 379 kts 183°
2026-04-16 15:07 58.19767 18.40307 12854 ft 376 kts 183°
2026-04-16 15:08 58.17163 18.40031 12357 ft 373 kts 183°
2026-04-16 15:08 58.14581 18.39758 11956 ft 368 kts 183°
2026-04-16 15:08 58.12094 18.39495 11779 ft 357 kts 183°
2026-04-16 15:08 58.09649 18.39236 11606 ft 347 kts 183°
2026-04-16 15:09 58.07272 18.38985 11428 ft 337 kts 183°
2026-04-16 15:09 58.04965 18.38742 11261 ft 328 kts 183°
2026-04-16 15:09 58.02720 18.38506 11108 ft 318 kts 183°
2026-04-16 15:09 58.00539 18.38277 10959 ft 309 kts 183°
2026-04-16 15:10 57.98419 18.38054 10819 ft 301 kts 183°
2026-04-16 15:10 57.96364 18.37839 10676 ft 292 kts 183°
2026-04-16 15:10 57.94392 18.37633 10550 ft 283 kts 183°
2026-04-16 15:10 57.92452 18.37430 10420 ft 275 kts 183°
2026-04-16 15:11 57.90563 18.37233 10293 ft 271 kts 183°
2026-04-16 15:11 57.88641 18.37033 10076 ft 280 kts 183°
2026-04-16 15:11 57.86678 18.36828 9760 ft 284 kts 183°
2026-04-16 15:11 57.84696 18.36623 9384 ft 287 kts 183°
2026-04-16 15:12 57.82715 18.36417 8998 ft 283 kts 183°
2026-04-16 15:12 57.80775 18.36216 8689 ft 276 kts 183°
2026-04-16 15:12 57.78882 18.36019 8419 ft 270 kts 183°
2026-04-16 15:12 57.77045 18.35829 8200 ft 265 kts 183°
2026-04-16 15:13 57.75234 18.35642 8072 ft 256 kts 183°
2026-04-16 15:13 57.73492 18.35462 8011 ft 244 kts 183°
2026-04-16 15:13 57.71816 18.35289 7930 ft 242 kts 183°
2026-04-16 15:13 57.70129 18.35116 7795 ft 242 kts 183°
2026-04-16 15:14 57.68450 18.34944 7648 ft 241 kts 183°
2026-04-16 15:14 57.66782 18.34694 7482 ft 241 kts 192°
2026-04-16 15:14 57.65313 18.33291 7177 ft 239 kts 223°
2026-04-16 15:14 57.64117 18.31144 6896 ft 238 kts 226°
2026-04-16 15:15 57.62953 18.29008 6590 ft 238 kts 226°
2026-04-16 15:15 57.61781 18.26846 6272 ft 235 kts 226°
2026-04-16 15:15 57.60654 18.24756 5926 ft 222 kts 226°
2026-04-16 15:15 57.59583 18.22768 5554 ft 215 kts 226°
2026-04-16 15:16 57.58542 18.20832 5331 ft 205 kts 227°
2026-04-16 15:16 57.57548 18.18984 5071 ft 202 kts 226°
2026-04-16 15:16 57.56551 18.17128 4723 ft 201 kts 227°
2026-04-16 15:16 57.55617 18.15395 4781 ft 181 kts 227°
2026-04-16 15:17 57.54714 18.13713 4638 ft 188 kts 227°
2026-04-16 15:17 57.53710 18.12132 4513 ft 197 kts 208°
2026-04-16 15:17 57.52374 18.11602 4294 ft 198 kts 175°
2026-04-16 15:17 57.51094 18.12451 4019 ft 196 kts 141°
2026-04-16 15:18 57.50223 18.14326 3905 ft 192 kts 116°
2026-04-16 15:18 57.49677 18.16599 3689 ft 194 kts 111°
2026-04-16 15:18 57.49233 18.18938 3391 ft 190 kts 92°
2026-04-16 15:18 57.49497 18.21259 3094 ft 183 kts 57°
2026-04-16 15:19 57.50380 18.22856 2873 ft 177 kts 27°
2026-04-16 15:19 57.51496 18.23818 2723 ft 176 kts 22°
2026-04-16 15:19 57.52556 18.24654 2611 ft 161 kts 21°
2026-04-16 15:19 57.53528 18.25468 2495 ft 146 kts 22°
2026-04-16 15:20 57.54456 18.26187 2366 ft 144 kts 20°
2026-04-16 15:20 57.55386 18.26847 2179 ft 143 kts 19°
2026-04-16 15:20 57.56318 18.27483 2060 ft 143 kts 20°
2026-04-16 15:20 57.57244 18.28147 1947 ft 143 kts 22°
2026-04-16 15:21 57.58157 18.28865 1770 ft 142 kts 21°
2026-04-16 15:21 57.59068 18.29562 1566 ft 141 kts 21°
2026-04-16 15:21 57.59982 18.30199 1312 ft 140 kts 18°
2026-04-16 15:21 57.60888 18.30786 1107 ft 140 kts 19°
2026-04-16 15:22 57.61810 18.31425 937 ft 141 kts 21°
2026-04-16 15:22 57.62727 18.32064 733 ft 139 kts 20°
2026-04-16 15:22 57.63626 18.32718 565 ft 140 kts 20°
2026-04-16 15:22 57.64558 18.33383 393 ft 146 kts 21°
2026-04-16 15:23 57.65498 18.34061 176 ft 141 kts 20°
2026-04-16 15:23 57.66326 18.34645 151 ft 112 kts 20°
2026-04-16 15:23 57.66857 18.35030 150 ft 54 kts 21°
2026-04-16 15:23 57.67004 18.35166 152 ft 8 kts 24°
2026-04-16 15:24 57.67024 18.35164 152 ft 0 kts 329°
2026-04-16 15:24 57.67025 18.35151 152 ft 1 kts 265°
2026-04-16 15:24 57.66947 18.35070 152 ft 23 kts 193°
2026-04-16 15:24 57.66747 18.34953 148 ft 38 kts 201°
2026-04-16 15:25 57.66482 18.34759 150 ft 42 kts 201°
2026-04-16 15:25 57.66203 18.34562 151 ft 43 kts 200°
2026-04-16 15:25 57.65990 18.34413 150 ft 16 kts 201°
2026-04-16 15:25 57.65962 18.34383 151 ft 1 kts 243°
2026-04-16 15:26 57.65963 18.34342 151 ft 10 kts 278°
2026-04-16 15:26 57.66007 18.34117 151 ft 25 kts 290°
2026-04-16 15:26 57.66065 18.34006 151 ft 6 kts 26°
2026-04-16 15:26 57.66110 18.34043 152 ft 8 kts
2026-04-16 15:27 57.66150 18.34016 151 ft 3 kts 335°
2026-04-16 15:27 57.66153 18.34013 151 ft 0 kts 335°